{"data":{"norad_id":43576,"intl_designator":"2018-061H","name":"IRIDIUM 156","alt_names":[],"object_type":"PAYLOAD","status":"ACTIVE","operator":null,"country":"US","launch_date":"2018-07-25","launch_site_code":"AFWTR","launch_vehicle":null,"mission":null,"orbit_class":"UNKNOWN","rcs_meters":null,"size_class":null,"mass_kg":null,"dimensions":null,"purposes":["comms"],"wikipedia_slug":null,"has_3d_model":false,"image_url":null,"decayed_at":null,"tle_current":{"epoch":"2026-05-25T00:34:38.457408Z","epoch_age_seconds":79721,"freshness":"FRESH","line1":"1 43576U 18061H   26145.02405622  .00000025  00000+0  18564-5 0  9995","line2":"2 43576  86.3967  66.4127 0002281  79.9059 280.2394 14.34217839410054","mean_motion":14.34217839,"eccentricity":0.0002281,"inclination_deg":86.3967,"raan_deg":66.4127,"arg_perigee_deg":79.9059,"mean_anomaly_deg":280.2394,"bstar":1.8564e-6,"rev_number":41005,"period_min":100.40315779394,"perigee_km":776.03461945907,"apogee_km":779.29909717924,"semimajor_km":7155.8038583192,"source":"CELESTRAK","updated_at":"2026-05-25T13:38:14.812945Z"}}}